FLOCK 4Q 35

导读 | 星芒AI

FLOCK 4Q 35 是Planet Labs公司发射的 Dove 系列小型地球观测卫星之一,属于FLOCK 4Q组网星座。该卫星主要用于高分辨率光学成像,支持全球范围内的每日重访能力,广泛应用于环境监测、农业管理、灾害评估等领域。卫星采用标准化设计,具备高效的数据采集与传输能力,是商业遥感领域的重要组成部分。

基本信息
目录编号:
58309
目录名称:
FLOCK 4Q 35
国际标识:
2023-174BF
轨道中心:
EARTH
卫星名称:
FLOCK 4Q 35
卫星全名:
--
卫星状态:
在轨 (已飞行711 天)
发射日期:
2023-11-11 UTC
国别 :
美国 (US)
星等 :
--
轨道信息
数据来源 国际轨道数据
星历时间: 2025-10-22T13:00:35+0800
9小时前
查看轨道信息
半长轴: 6821.748km
偏心率: 0.0007442
轨道倾角: 97.409°
近地点辐角 286.153°
升交点赤经 16.565°
平近点角 73.890°
近地点: 438.536km
远地点: 448.69km
周期: 93.455分钟
每日圈数: 15.408462
详细信息
使用方式:
暂无
2D轨道图
3D轨道图
轨道高度分析图
轨道倾角分析图
轨道综合分析图
查看轨道综合分析图